Location: Arpaise
(41.0333°N, 14.7333°E)
Time: 15:31:43
(UTC+00:00)

ATLAS 5 CENTAUR R/B - Pass Details

Date: 05 July 2020
Orbit: 534 x 1124 km, 63.4° (Epoch: 06 August)

Event Time Altitude Azimuth Distance (km) Brightness Sun altitude
Rises 21:05:31 0° 255° (WSW) 2,720 5.1 -20.4°
Reaches altitude 10° 21:08:07 10° 274° (W) 1,878 4.4 -20.7°
Maximum altitude 21:11:13 20° 322° (NW) 1,434 4.3 -21.0°
Drops below altitude 10° 21:14:36 10° 9° (N) 2,068 5.0 -21.3°
Sets 21:17:40 0° 26° (NNE) 3,096 5.7 -21.5°
